Theta_e
295 295 295 296 297 299 300 301 302 303 303 303 302 302 303 303 301 292 288 288 286 283 284 285 286 281 279 278 279 283 282 282 281 276 278 270 267 275 272 277 277 276 277 278 279 277 275 280 280 280 281 276 278 277
295 294 295 295 296 297 298 299 300 300 302 303 303 304 303 303 301 296 288 289 289 283 284 289 288 289 286 285 281 283 279 277 283 276 274 269 268 270 272 272 280 277 283 279 281 279 277 275 275 275 276 276 275 274
295 294 295 295 295 296 297 297 298 299 300 301 303 303 304 304 301 295 286 286 284 278 282 284 283 288 289 288 288 280 278 284 284 283 274 270 270 276 270 274 275 280 280 281 282 278 275 274 272 273 273 273 273 273
295 294 294 295 295 296 296 296 297 299 301 302 300 302 304 304 301 295 286 284 284 277 276 275 287 285 288 286 286 288 287 286 283 278 273 272 270 279 274 279 280 279 281 277 277 276 273 274 273 271 271 271 270 270
294 294 293 295 295 295 296 296 296 298 301 302 301 301 302 303 297 289 285 286 286 284 277 273 277 283 284 281 285 286 286 285 283 280 278 274 274 277 273 275 271 276 277 279 279 278 280 277 274 272 270 270 270 269
294 294 293 294 295 295 295 295 295 297 300 300 301 302 303 299 297 293 285 288 288 289 285 273 276 275 276 281 281 284 285 285 284 282 277 273 277 279 275 270 272 270 270 271 275 271 272 273 272 273 270 269 269 268
294 294 294 293 294 294 294 294 294 295 299 299 298 299 298 295 288 285 285 286 292 290 284 272 269 275 276 276 281 282 284 281 282 279 278 276 275 278 271 272 269 268 269 269 270 270 268 270 269 269 269 268 268 267
293 294 293 292 293 294 294 293 293 293 297 297 296 295 295 294 290 284 283 286 289 284 281 274 269 269 273 271 274 279 280 280 277 276 276 276 274 276 275 272 268 268 267 266 265 267 269 268 267 266 266 265 264 262
293 293 293 292 292 293 293 292 293 292 296 296 292 288 279 276 275 281 285 282 278 281 277 265 265 267 268 270 274 276 279 275 277 273 272 273 273 274 273 268 268 267 267 264 262 262 262 263 262 262 262 262 261 260
293 293 293 292 290 291 292 292 293 293 294 290 280 271 266 269 285 285 272 270 267 264 263 262 258 264 268 266 264 270 273 271 271 267 270 270 272 266 264 263 263 264 261 260 258 255 254 256 259 258 259 258 260 260
292 292 292 291 289 291 291 291 290 288 287 272 265 265 270 278 271 262 262 263 259 263 257 255 260 262 266 264 262 270 264 264 265 264 266 262 266 267 259 257 255 259 259 253 256 257 258 261 260 258 255 255 257 255
292 292 292 289 289 290 290 290 288 273 266 271 270 267 264 262 261 262 255 254 256 262 253 257 259 261 261 265 261 260 260 259 260 255 259 259 266 259 256 255 253 255 254 252 247 251 250 256 257 256 255 253 253 251
293 291 291 288 290 290 290 288 285 283 276 265 264 263 265 260 261 260 257 258 255 249 251 252 256 259 259 263 258 259 260 259 255 256 259 262 260 255 255 252 249 247 248 251 249 249 252 251 251 251 251 248 250 249
291 291 291 286 290 290 289 286 282 274 265 264 263 262 263 258 258 258 257 256 253 252 249 252 250 255 250 256 255 259 254 255 254 256 261 262 261 259 256 255 253 253 252 253 252 250 251 251 249 246 251 251 250 249
291 291 286 286 290 289 288 281 275 260 260 264 262 263 255 251 243 241 237 242 247 249 252 252 252 259 249 252 251 251 253 253 258 261 261 260 258 258 256 254 254 254 252 252 249 251 251 250 250 247 244 246 246 247
292 283 278 289 289 286 281 271 259 255 253 257 252 256 244 250 248 242 240 246 249 255 251 251 248 252 252 251 253 255 254 256 260 256 257 252 253 253 253 252 253 251 251 249 248 247 249 248 249 249 243 243 243 246
290 274 285 289 287 278 276 263 262 253 258 257 256 240 248 249 255 249 250 251 254 255 257 252 256 260 252 249 252 251 256 258 255 253 248 249 253 254 251 252 251 250 249 248 246 246 247 245 245 244 247 247 245 245
284 282 286 286 278 271 261 260 260 258 262 251 256 250 245 247 247 245 244 250 254 253 253 258 257 253 257 256 257 259 254 250 246 248 249 247 246 245 251 253 250 250 249 248 246 246 244 245 248 250 246 242 240 238
285 283 284 281 274 265 264 261 261 263 255 248 249 249 245 245 247 247 246 249 250 251 253 251 254 256 260 260 259 254 250 254 259 256 252 248 249 250 250 248 249 248 249 247 245 250 249 248 248 248 247 244 247 244
291 285 281 278 274 269 266 261 258 260 258 254 250 250 249 249 248 246 247 251 252 251 253 255 260 264 263 258 256 257 256 257 257 256 256 253 251 251 252 252 253 251 247 242 242 244 242 243 243 243 243 245 245 247
281 278 276 270 265 265 262 260 258 256 252 252 249 251 250 250 249 250 251 252 251 253 257 261 262 261 252 249 250 251 255 256 258 260 261 255 251 251 250 250 251 250 250 247 249 245 247 249 248 246 244 244 245 244
276 278 270 271 268 264 260 257 259 256 256 251 251 250 249 250 250 251 252 251 252 258 260 262 261 258 250 251 253 252 252 253 251 252 253 254 253 252 251 251 250 251 251 250 249 251 250 249 244 243 245 246 244 244
276 273 268 268 266 260 258 257 258 256 258 253 251 252 252 249 250 252 251 253 256 259 260 259 257 254 253 249 251 251 251 253 252 253 255 255 252 250 251 250 251 252 249 248 246 248 248 247 247 246 244 242 242 242
275 269 267 264 262 258 255 257 258 256 254 253 255 254 253 249 247 247 251 253 257 254 255 254 253 254 254 255 257 257 254 252 253 253 251 252 252 251 248 250 248 247 247 244 247 247 245 245 246 246 245 244 243 245
272 268 265 262 254 257 257 256 255 255 254 256 255 254 251 248 250 248 251 255 253 252 251 249 252 257 261 260 259 257 252 254 255 255 252 252 250 247 247 244 242 244 244 245 244 244 242 243 245 246 245 246 247 247
268 264 261 261 256 258 259 256 253 256 256 254 254 249 248 251 251 255 253 253 251 251 249 253 257 258 258 259 259 257 255 250 251 252 251 250 251 251 248 247 247 249 247 250 248 247 247 247 246 246 246 248 248 246
266 263 256 255 257 258 256 256 257 258 258 257 253 251 254 257 255 257 253 250 250 250 255 258 260 260 259 257 254 251 248 248 249 249 246 245 244 244 246 247 247 249 245 248 249 248 249 250 248 247 248 245 246 246
262 258 261 257 257 259 260 259 259 258 259 255 255 253 258 259 259 256 255 254 252 252 252 252 251 252 252 250 249 249 247 246 246 246 243 242 239 239 240 241 243 256 245 245 248 248 247 248 247 247 247 248 245 240
257 256 257 256 258 260 262 263 262 257 255 258 257 256 261 260 259 258 256 255 254 255 255 253 250 249 248 246 245 244 245 248 248 247 245 245 245 247 242 242 245 248 247 246 255 251 247 246 246 245 243 242 241 238
257 258 261 261 261 261 257 254 255 253 254 254 254 256 257 258 256 255 254 254 255 255 253 252 250 248 249 248 248 247 244 240 242 246 246 245 246 244 241 242 243 242 243 244 247 247 256 247 250 242 241 240 240 240
256 258 258 258 257 253 253 252 252 253 253 253 252 253 255 254 255 254 254 254 253 252 252 250 247 245 246 247 247 246 247 242 240 242 240 241 241 241 241 242 243 241 241 242 242 243 242 242 240 240 239 240 242 243
252 255 257 257 254 252 252 252 253 253 253 252 253 251 253 253 254 254 250 249 248 248 249 248 248 250 248 243 241 240 246 242 242 245 244 244 242 242 241 241 239 239 241 241 240 240 240 240 240 240 241 243 244 244
251 252 255 255 254 254 252 253 251 250 249 248 248 246 247 248 252 252 247 245 247 248 248 248 245 242 242 243 243 243 245 242 243 252 252 252 250 246 239 237 238 240 242 241 241 241 241 240 241 241 243 244 245 245
Wind_Speed
27 26 25 24 23 22 23 23 19 10 11 12 9 7 8 11 12 5 1 4 4 4 1 1 2 4 3 2 5 4 4 1 2 4 5 5 4 8 3 5 9 10 7 9 7 10 14 5 5 16 6 2 3 4
26 25 24 23 22 21 19 18 18 16 14 4 8 9 5 4 8 6 3 3 4 6 3 2 2 0 1 2 5 2 3 4 6 4 2 4 3 1 6 7 1 6 10 6 8 6 4 3 2 3 2 3 3 5
25 24 24 21 21 20 19 17 15 13 11 9 8 6 4 2 4 6 2 2 5 4 2 3 4 3 1 1 0 5 2 4 2 3 5 3 5 5 6 9 3 4 4 5 3 5 4 4 3 1 1 2 4 9
25 23 23 22 21 20 19 18 15 15 15 7 5 5 5 7 10 7 3 1 3 3 4 4 3 4 5 5 6 4 1 2 2 2 3 4 4 5 4 5 8 7 8 7 6 3 2 9 8 5 6 9 11 9
24 23 22 23 21 21 20 18 15 13 15 15 4 4 5 10 11 8 3 2 1 4 2 4 2 1 1 2 4 8 7 5 2 2 3 5 3 3 1 2 4 6 9 8 8 1 3 2 12 12 12 9 8 13
23 23 22 22 22 21 20 19 16 13 12 16 18 11 12 14 10 3 3 3 4 2 2 3 3 5 6 5 3 0 6 3 3 3 3 2 0 4 4 6 3 1 2 2 2 3 5 9 9 6 10 12 9 11
22 22 22 21 23 22 21 19 16 11 8 11 11 11 10 10 5 3 0 2 5 2 2 4 5 3 4 3 1 1 1 1 1 1 2 2 3 4 3 8 3 3 6 6 7 7 5 3 5 9 11 11 11 12
20 21 21 21 21 22 22 21 16 9 5 10 14 15 17 18 11 4 6 7 3 4 3 1 5 4 7 3 2 2 1 1 2 1 0 1 2 1 5 3 4 5 6 7 4 5 2 11 12 12 11 10 11 9
19 19 19 20 21 23 22 21 14 7 0 8 7 5 5 6 4 1 1 7 4 3 2 3 4 4 5 1 2 3 1 1 1 1 1 1 1 6 2 2 7 6 3 10 7 7 7 10 11 10 9 7 9 7
17 18 17 17 17 21 21 21 17 3 6 6 6 6 5 3 8 2 7 5 6 5 5 3 2 1 2 2 2 1 2 1 1 1 3 1 4 1 0 1 3 7 9 9 7 3 1 3 8 6 6 4 6 9
15 16 17 16 14 18 18 18 16 10 7 5 3 1 4 8 4 5 2 3 4 3 2 2 1 0 3 2 2 2 1 2 1 3 1 2 5 3 3 3 2 5 7 4 1 1 3 7 11 9 6 4 6 7
14 14 15 13 13 16 16 16 15 5 3 5 5 2 3 6 5 5 2 4 2 5 2 4 3 1 2 1 3 3 3 3 4 3 4 4 4 3 4 3 2 4 6 5 1 6 3 5 8 8 8 8 6 5
14 14 13 8 12 15 15 13 9 6 4 4 6 5 5 4 4 6 5 5 3 3 3 1 1 1 2 2 3 3 3 4 0 3 5 7 2 3 6 5 2 0 3 6 4 3 5 6 6 5 7 4 7 6
14 15 10 5 13 14 13 10 6 4 5 3 5 4 5 4 6 7 6 5 3 3 3 2 2 2 2 5 1 4 2 2 3 1 8 4 6 7 7 5 6 7 6 5 5 4 6 7 5 3 4 7 7 6
15 14 5 4 17 15 12 5 6 4 5 3 5 6 7 2 1 2 2 2 3 2 3 3 4 2 3 4 2 4 5 5 7 7 5 4 4 9 9 7 6 7 7 5 5 5 6 6 6 5 3 4 4 5
14 4 3 12 16 14 6 5 4 4 5 5 3 2 0 3 3 1 3 3 4 3 2 3 4 5 3 4 3 8 7 8 6 5 4 3 5 5 6 6 6 4 7 6 6 5 6 7 7 6 4 4 4 5
7 4 5 12 14 5 8 3 3 6 4 3 4 1 1 0 3 3 4 3 5 4 4 4 5 9 3 3 4 6 8 6 5 4 2 3 5 7 6 6 7 7 7 6 5 5 5 4 5 5 6 6 6 5
4 3 6 9 7 3 4 4 4 4 5 2 2 3 2 0 2 2 2 2 4 4 4 6 6 3 6 6 6 6 5 4 4 3 2 2 2 1 5 8 7 7 7 6 4 5 5 6 6 5 4 4 3 3
5 5 3 4 4 4 3 3 3 3 1 1 1 1 2 1 2 0 0 1 1 1 4 3 4 5 6 5 5 4 3 4 3 3 2 3 4 5 6 4 5 5 7 6 5 5 5 6 3 4 4 4 4 3
5 9 8 7 4 3 3 2 0 2 1 1 1 1 2 0 0 1 1 1 1 1 1 5 8 5 5 4 5 3 3 4 4 2 2 1 2 4 6 6 5 5 5 3 2 3 3 1 2 3 4 4 4 5
7 3 5 3 4 5 3 1 1 2 3 1 1 0 1 0 0 1 2 2 2 5 5 6 4 1 2 1 1 1 2 3 3 3 3 3 3 2 3 3 4 4 4 4 5 4 5 6 3 5 5 4 5 3
3 9 3 2 3 2 3 0 1 2 1 1 1 1 1 1 2 2 2 1 6 6 6 3 2 3 2 3 3 3 2 4 3 4 5 6 4 3 3 4 5 5 6 6 5 6 6 4 3 3 4 4 3 3
10 3 3 1 2 2 2 1 2 2 2 2 1 0 2 1 1 1 3 5 6 3 0 1 2 2 3 2 2 2 3 4 3 2 2 2 1 1 2 5 5 6 5 5 3 4 4 4 5 5 3 2 3 2
4 3 5 4 3 3 1 3 0 2 1 2 3 3 2 2 0 1 5 5 4 1 1 3 2 3 2 2 2 2 3 3 2 1 2 3 2 3 2 2 4 3 3 2 4 4 3 3 4 4 5 4 4 4
4 5 5 6 0 3 4 3 3 2 4 3 3 2 2 2 1 3 5 5 2 1 1 2 1 1 1 2 1 2 2 3 3 3 2 4 2 2 0 2 3 4 4 4 3 3 3 3 5 5 5 5 7 7
7 5 10 6 2 6 6 5 6 7 3 3 3 1 0 2 0 7 5 3 2 1 3 3 3 3 2 2 2 1 1 3 3 2 2 4 4 3 3 3 0 4 6 5 5 5 5 5 5 7 6 7 6 5
7 6 2 0 2 4 2 1 1 2 5 6 4 4 3 3 6 5 2 1 1 2 3 2 0 0 1 2 2 2 2 2 2 1 1 1 2 3 3 4 3 4 3 6 5 5 6 6 5 5 5 2 5 6
1 2 6 5 3 2 4 3 5 6 4 3 5 5 6 6 4 1 1 1 1 1 3 3 4 3 3 3 2 2 2 1 2 2 1 1 1 1 2 2 2 2 2 3 4 4 3 4 5 5 5 5 3 4
1 1 2 3 2 3 4 4 3 1 1 3 4 3 3 0 0 0 1 1 1 1 1 1 2 2 3 3 3 2 1 2 4 4 2 2 4 4 1 1 1 1 2 2 3 5 6 4 4 4 4 4 3 2
1 1 1 3 3 4 1 2 1 1 2 2 1 2 2 2 1 1 1 1 1 1 1 2 2 2 1 1 1 2 1 2 2 4 5 3 4 3 1 1 2 1 2 3 3 3 5 5 5 3 2 1 1 2
1 1 1 0 1 1 2 1 1 1 1 1 1 1 2 4 2 1 1 0 1 2 1 1 1 0 2 2 2 2 2 2 5 6 3 2 2 2 1 2 2 2 3 4 3 2 2 2 1 1 3 5 6 4
1 3 2 2 1 1 0 0 0 0 2 1 0 1 2 2 3 1 2 2 2 2 4 2 2 3 4 2 1 1 1 1 3 5 6 3 3 2 1 2 2 3 4 4 3 3 2 3 3 4 4 8 8 8
1 0 0 2 2 2 1 1 2 1 1 0 1 1 1 1 4 2 0 1 2 2 3 3 2 2 3 4 3 2 3 3 4 5 6 5 3 3 3 2 3 3 4 3 3 3 4 3 4 5 7 8 9 10
Wind_Direction
9 6 11 11 16 19 19 23 25 56 150 163 156 213 54 45 54 73 260 9 100 89 134 329 24 118 94 94 147 165 83 273 127 149 168 208 152 211 128 202 172 187 198 220 226 246 255 134 75 182 203 20 107 103
10 6 10 11 13 17 16 20 21 17 12 3 214 233 267 63 62 74 44 8 22 73 131 98 98 30 142 175 148 177 182 165 183 135 179 104 158 87 169 231 296 220 195 199 199 223 355 320 351 7 349 141 167 122
10 8 8 12 12 12 10 8 10 7 358 337 335 265 253 153 100 100 120 333 56 96 107 172 191 171 150 203 70 141 280 228 206 154 159 176 192 141 171 231 143 254 168 201 160 196 208 263 284 309 341 120 110 115
7 12 5 10 10 10 7 6 3 1 2 345 281 281 227 168 151 131 134 234 109 132 103 271 158 190 153 190 201 203 202 336 42 81 127 151 171 175 217 228 200 189 146 183 266 249 159 217 217 172 117 111 103 79
3 10 5 5 7 8 7 5 4 3 9 9 236 231 220 159 110 90 91 25 357 116 221 263 227 156 254 342 291 211 211 206 181 222 166 209 162 117 294 51 258 187 185 188 226 207 159 153 164 168 145 138 122 120
360 5 7 1 4 5 5 3 2 7 34 47 36 49 130 134 130 81 8 32 356 2 96 327 283 8 347 335 358 212 205 201 204 216 215 187 184 149 185 219 222 116 61 15 223 63 53 94 115 118 124 127 122 119
355 360 3 1 0 2 1 1 359 1 35 48 66 68 71 75 63 80 120 322 330 358 87 330 331 354 350 301 337 346 92 148 236 183 242 167 169 173 165 230 185 125 119 90 85 95 53 179 152 121 121 118 115 108
350 356 360 358 355 358 359 356 351 344 15 95 83 82 81 90 106 44 8 358 348 82 60 184 275 13 4 351 332 323 213 149 36 157 311 316 137 162 234 165 130 126 115 94 55 48 33 116 115 114 119 129 122 118
346 349 358 358 353 354 356 358 353 344 339 121 89 99 54 34 51 105 106 41 32 75 162 103 158 240 353 341 285 310 288 154 9 70 59 291 180 223 155 175 182 169 199 142 91 66 75 114 116 121 132 130 122 134
342 343 353 360 351 352 354 359 355 14 62 26 37 47 355 285 303 92 4 25 17 350 22 142 27 241 5 352 304 329 14 40 248 327 295 229 255 73 36 314 301 132 132 134 104 74 73 92 143 143 155 130 138 152
339 341 343 360 350 352 355 355 352 336 42 39 40 156 244 322 53 32 15 79 327 348 14 241 199 203 336 99 201 13 205 356 70 276 256 317 274 192 144 140 328 125 129 108 80 61 131 154 162 155 149 145 133 134
330 338 343 6 349 354 354 357 356 40 162 175 151 87 24 39 32 77 264 331 100 233 286 146 199 195 298 343 90 336 131 38 243 340 60 273 244 159 155 179 149 131 136 121 87 136 131 142 142 145 147 154 152 145
320 333 340 357 341 355 352 359 7 90 79 29 48 49 62 305 31 143 240 287 296 191 214 167 164 7 357 43 64 67 73 218 9 46 233 234 222 185 179 158 161 158 131 130 118 97 117 123 121 131 146 167 149 147
333 326 350 336 335 348 351 0 11 66 67 104 128 273 157 273 244 190 189 193 228 111 135 111 56 104 280 53 42 92 252 51 39 347 237 242 207 174 174 166 138 187 182 160 145 135 142 147 143 134 142 152 148 166
330 339 326 301 344 343 352 41 89 65 103 181 98 235 215 233 226 212 226 331 248 155 117 72 37 72 358 82 40 95 29 261 213 227 232 225 172 151 166 173 177 163 170 170 161 169 167 154 156 150 187 163 147 141
327 19 239 326 341 348 25 94 52 85 51 109 75 80 314 35 280 263 188 228 194 148 77 60 121 66 262 141 104 216 129 223 244 220 229 147 156 167 163 168 180 163 167 171 172 175 159 167 169 176 142 164 181 170
315 226 263 334 347 34 33 74 66 50 150 109 258 10 114 136 201 195 163 193 154 126 189 132 126 205 107 40 274 197 207 224 230 256 231 209 177 184 166 156 165 162 169 173 162 174 172 141 131 115 167 208 198 197
220 239 319 332 13 55 23 38 80 94 241 186 164 228 226 185 147 258 251 214 151 169 146 201 125 128 190 186 249 234 231 247 210 226 241 240 227 187 167 170 166 165 165 175 166 148 137 157 176 204 168 168 141 199
231 180 216 40 80 84 31 351 32 236 220 176 247 53 112 235 255 304 214 133 360 6 110 63 113 199 221 212 214 240 233 209 186 188 200 207 174 162 162 134 135 151 157 164 174 182 187 191 187 171 170 152 192 192
253 152 123 84 132 88 329 322 2 109 230 104 105 149 119 105 136 56 35 117 149 93 112 196 215 207 192 218 192 190 190 153 140 86 297 212 179 160 167 158 178 150 126 110 127 134 123 255 234 199 173 177 173 216
119 144 76 58 52 63 77 356 43 47 122 141 281 212 106 76 106 170 182 159 52 221 244 219 225 189 91 174 142 129 160 162 183 172 182 158 178 152 139 157 147 131 155 178 184 203 198 217 195 174 177 201 213 209
137 135 91 38 94 73 75 78 48 111 110 108 220 177 148 198 199 206 118 157 232 239 212 195 210 147 158 203 179 194 163 135 104 105 85 112 120 165 198 184 152 183 196 197 184 198 212 213 181 177 183 212 168 191
105 89 82 91 141 140 232 183 206 170 219 224 73 304 242 223 189 168 243 227 254 245 63 120 112 79 115 90 103 126 184 163 157 164 170 168 97 156 147 159 174 170 195 230 185 182 208 193 185 183 170 147 163 198
86 107 159 200 178 212 101 178 105 135 85 203 187 253 219 198 328 88 252 250 247 18 140 158 136 103 99 137 205 204 181 168 140 164 167 151 198 231 188 188 193 205 177 151 158 187 181 194 171 168 172 171 189 210
174 209 153 209 357 128 188 174 189 179 249 177 200 257 238 137 142 238 239 270 303 285 200 145 168 304 130 118 127 150 155 179 169 187 195 194 121 89 113 255 253 230 157 139 170 172 196 161 179 180 183 191 206 223
216 187 179 192 177 179 182 173 201 203 170 182 220 131 127 114 44 247 236 247 272 237 199 186 169 171 221 207 142 167 182 152 121 166 245 189 200 160 171 164 150 290 189 190 141 178 184 186 179 189 208 217 216 214
225 210 192 308 120 118 100 65 99 162 180 198 171 163 172 222 242 251 298 292 293 310 321 341 200 73 94 114 104 96 89 116 99 135 35 225 221 196 153 157 198 245 182 178 178 166 176 186 188 196 216 222 214 206
34 172 183 168 192 221 148 172 179 204 198 163 123 180 193 213 251 264 266 15 43 47 59 43 35 41 68 69 69 105 103 140 285 290 266 263 236 264 242 256 270 295 170 172 173 164 168 170 181 192 200 228 242 210
168 187 130 117 150 199 224 206 204 114 69 162 174 223 230 326 306 145 127 111 141 223 129 106 57 70 79 76 68 59 113 153 98 70 66 296 347 329 327 225 190 92 75 99 185 160 176 161 169 180 189 195 221 193
152 204 218 182 204 215 113 349 110 80 31 28 341 289 260 240 86 97 139 155 197 223 57 49 65 73 88 97 57 20 192 187 148 139 155 201 221 259 275 193 155 134 105 102 100 37 72 54 78 58 52 353 336 299
342 187 165 128 195 67 54 58 65 52 78 58 21 279 294 319 311 118 257 28 105 110 137 126 19 150 133 154 133 102 331 241 214 227 214 195 232 267 263 208 186 144 109 110 110 100 99 78 117 249 284 282 280 261
355 174 172 196 206 133 209 64 125 87 46 33 202 312 298 309 277 205 155 120 109 173 223 170 169 233 201 209 227 248 242 176 189 210 204 207 234 249 164 130 117 113 111 114 112 119 151 201 241 242 262 279 281 278
38 51 95 123 146 174 150 150 52 56 25 356 290 299 278 237 246 288 33 179 159 191 195 205 218 236 200 181 186 221 227 223 230 210 185 194 183 155 138 129 123 121 134 145 163 172 211 231 259 258 271 271 276 279